Overview Statistics Trail Chart Weather Telemetry Raw packets
 

This is the latest recevied weather packets stored in our database for station/object PA3FNT-13. If no packets are shown the sender has not sent any weather packets the latest 10 day(s).

<< 4 5 6 7 8 9 10 >>
Time Temp. Humidity Pressure Rain* Wind** Luminosity Snow
1788376724 31.11° C 34% 1019.1 hPa - - - -
1788375823 29.44° C 36% 1019.1 hPa - - - -
1788374923 28.89° C 37% 1019.2 hPa - - - -
1788374023 29.44° C 36% 1019.2 hPa - - - -
1788373123 30.56° C 35% 1019.1 hPa - - - -
1788372223 30° C 36% 1019.1 hPa - - - -
1788371323 28.89° C 37% 1019.2 hPa - - - -
1788370422 28.33° C 38% 1019.3 hPa - - - -
1788369522 28.89° C 37% 1019.3 hPa - - - -
1788368622 28.89° C 37% 1019.2 hPa - - - -
1788367722 28.89° C 36% 1019.3 hPa - - - -
1788366822 29.44° C 35% 1019.3 hPa - - - -
1788365922 29.44° C 36% 1019.5 hPa - - - -
1788365021 28.89° C 36% 1019.5 hPa - - - -
1788364121 28.89° C 36% 1019.5 hPa - - - -
1788363221 28.89° C 36% 1019.6 hPa - - - -
1788362321 28.89° C 36% 1019.7 hPa - - - -
1788361421 28.89° C 37% 1019.7 hPa - - - -
1788360521 28.89° C 37% 1019.8 hPa - - - -
1788359620 28.33° C 36% 1019.9 hPa - - - -
1788358720 28.33° C 37% 1019.8 hPa - - - -
1788357820 28.33° C 37% 1019.8 hPa - - - -
1788356920 28.33° C 37% 1019.8 hPa - - - -
1788356020 29.44° C 36% 1019.8 hPa - - - -
1788355120 28.89° C 37% 1019.8 hPa - - - -

* Rain since midnight (hover to see other rain measurements)
** Current wind speed in m/s (hover to see current wind gust speed)